This demonstration page uses our WeatherBlox Daily Observations layout. Learn more.

Left ArrowRight Arrow

38.88101, -77.10428

Hourly Observations for December 22, 2019

Temp ( °F °C ) Dew Point ( °F °C ) Humidity (%) Winds ( mph kmh ) Pressure ( in mb ) Visibility ( mi km ) Precip ( " mm )
12:52 am 00:52 Mostly Clear 30 -1.1 26 -3.3 85 85 Calm 30.46 1032 8 12.87472 0 0
1:52 am 01:52 Mostly Clear 30 -1.1 27 -2.8 88 88 Calm 30.47 1032 7 11.26538 0 0
2:52 am 02:52 Mostly Clear with Mist and Fog 28 -2.2 25 -3.9 88 88 WSW 3 6 30.45 1031 6 9.65604 0 0
3:52 am 03:52 Mostly Clear with Mist and Fog 29 -1.7 26 -3.3 89 89 WSW 3 6 30.43 1030 6 9.65604 0 0
4:52 am 04:52 Partly Cloudy with Mist and Fog 28 -2.2 25 -3.9 88 88 Calm 30.43 1030 6 9.65604 0 0
5:52 am 05:52 Partly Cloudy 29 -1.7 27 -2.8 92 92 Calm 30.45 1031 7 11.26538 0 0
6:52 am 06:52 Mostly Cloudy with Mist and Fog 27 -2.8 25 -3.9 92 92 Calm 30.43 1031 6 9.65604 0 0
7:52 am 07:52 Mostly Cloudy with Mist and Fog 28 -2.2 25 -3.9 88 88 SSW 3 6 30.43 1031 5 8.0467 0 0
8:52 am 08:52 Mostly Cloudy with Mist and Fog 30 -1.1 27 -2.8 88 88 Calm 30.44 1031 5 8.0467 0 0
9:52 am 09:52 Mostly Cloudy with Mist and Fog 33 0.6 29 -1.7 85 85 SSE 5 7 30.44 1031 5 8.0467 0 0
10:52 am 10:52 Mostly Cloudy 37 2.8 29 -1.7 73 73 S 5 7 30.44 1031 7 11.26538 0 0
11:52 am 11:52 Mostly Cloudy 41 5 30 -1.1 65 65 SSE 9 15 30.41 1030 9 14.48406 0 0
12:52 pm 12:52 Mostly Cloudy 45 7.2 31 -0.6 58 58 S 9 15 30.37 1028 10 16.0934 0 0
1:52 pm 13:52 Mostly Cloudy 46 7.8 30 -1.1 54 54 S 7 11 30.33 1027 10 16.0934 0 0
2:52 pm 14:52 Sunny 47 8.3 30 -1.1 52 52 S 8 13 30.33 1027 10 16.0934 0 0
3:52 pm 15:52 Mostly Cloudy 46 7.8 30 -1.1 54 54 S 6 9 30.32 1027 10 16.0934 0 0
4:52 pm 16:52 Mostly Cloudy 42 5.6 29 -1.7 60 60 S 6 9 30.32 1027 10 16.0934 0 0
5:52 pm 17:52 Mostly Cloudy 42 5.6 30 -1.1 62 62 S 6 9 30.33 1027 10 16.0934 0 0
6:52 pm 18:52 Partly Cloudy 40 4.4 31 -0.6 70 70 S 5 7 30.32 1027 10 16.0934 0 0
7:52 pm 19:52 Mostly Clear 36 2.2 31 -0.6 82 82 SSW 6 9 30.31 1026 10 16.0934 0 0
8:52 pm 20:52 Mostly Cloudy 36 2.2 32 0 86 86 SSW 5 7 30.31 1027 9 14.48406 0 0
10:52 pm 22:52 Cloudy 34 1.1 32 0 92 92 S 7 11 30.27 1025 8 12.87472 0 0
11:52 pm 23:52 Cloudy 35 1.7 31 -0.6 85 85 S 3 6 30.26 1025 9 14.48406 0 0

Powered by AerisWeather